User: anonymous   Login
Location: Batang Balui
(2.7000°N, 113.7833°E)
Time: 18:03:19
(UTC+00:00)
Language:

CZ-6A DEB - Orbit

View from above orbital plane
View from above orbital plane
View from above satellite
View from above satellite

Ground track
Ground track

The orbit data is extracted from the following two-line orbital elements,

1 54279U 22151W   24148.98435743  .00000886  00000-0  32618-3 0  9995
2 54279  98.6313 157.9730 0143531 116.2626 245.3387 14.29479104 79832
Epoch (UTC): 27 May 2024 23:37:28
Eccentricity: 0.0143531
inclination: 98.6313°
perigee height: 690 km
apogee height: 896 km
right ascension of ascending node: 157.9730°
argument of perigee: 116.2626°
revolutions per day: 14.29479104
mean anomaly at epoch: 245.3387°
orbit number at epoch: 7983

The dashed part of the orbit path shows where the satellite is in the earth's shadow,  

DLR